Regional Weather Roundup
Issued by NWS Boston, MA

Current Version | Previous Version | Text Only | Print | Product List | Glossary Off
Versions: 1 2 3 4 5 6 7 8 9 10 11 12 13 14 15 16 17 18 19 20 21 22 23 24 25 26 27 28

000
ASUS41 KBOX 250610
RWRBOX

REGIONAL WEATHER ROUNDUP
NATIONAL WEATHER SERVICE TAUNTON MA
200 AM EDT TUE APR 25 2017

NOTE:  "FAIR" INDICATES FEW OR NO CLOUDS BELOW 12,000 FEET WITH NO
SIGNIFICANT WEATHER AND/OR OBSTRUCTIONS TO VISIBILITY.

MAZALL-250700-
EASTERN MASSACHUSETTS

CITY           SKY/WX    TMP DP  RH WIND       PRES   REMARKS
BOSTON         NOT AVBL
BEVERLY        CLOUDY    47  44  90 E3        30.23R
LAWRENCE       CLOUDY    48  44  86 NE7       30.25S
BEDFORD        CLOUDY    50  40  68 NE6       30.21S
BLUE HILL        N/A     50  38  63 E9        30.20R
NORWOOD        CLOUDY    52  41  66 E5        30.22R
MARSHFIELD     CLOUDY    48  46  93 NE6       30.23R
PLYMOUTH       CLOUDY    50  46  86 NE5       30.22R
TAUNTON        CLOUDY    51  46  83 CALM      30.21R
NEW BEDFORD    CLOUDY    51  47  86 E9        30.19R
$$

MAZALL-250700-
CAPE COD AND THE ISLANDS

CITY           SKY/WX    TMP DP  RH WIND       PRES   REMARKS
FALMOUTH       CLOUDY    48  46  93 MISG      30.21S
HYANNIS        CLOUDY    50  46  86 E7        30.19S
CHATHAM        CLOUDY    49  46  90 E7        30.22S
PROVINCETOWN   CLOUDY    46  44  93 E7        30.24R
NANTUCKET      CLOUDY    48  44  86 E15       30.18F
MARTHAS VNYRD  CLOUDY    51  47  86 E16       30.18F
$$

MAZALL-250700-
CENTRAL AND WESTERN MASSACHUSETTS

CITY           SKY/WX    TMP DP  RH WIND       PRES   REMARKS
WORCESTER      CLOUDY    50  35  56 E7        30.20R
6HR MIN TEMP:  50; 6HR MAX TEMP:  59;

FITCHBURG      CLOUDY    52  41  66 CALM      30.21S
ORANGE         CLOUDY    47  43  86 CALM      30.19S
SPRINGFIELD    CLOUDY    52  42  67 CALM      30.16S
WESTFIELD      CLOUDY    52  43  71 CALM      30.17S
NORTH ADAMS    CLOUDY    48  39  71 CALM      30.16S
PITTSFIELD     CLOUDY    51  38  60 NE5       30.14F
$$

RIZALL-250700-
RHODE ISLAND

CITY           SKY/WX    TMP DP  RH WIND       PRES   REMARKS
PROVIDENCE     LGT RAIN  50  47  89 NE5       30.20S
6HR MIN TEMP:  49; 6HR MAX TEMP:  50; 6HR PCP: TRACE;

NEWPORT        CLOUDY    50  48  93 E8        30.18S
BLOCK ISLAND   CLOUDY    48  47  96 E9        30.17F
SMITHFIELD     CLOUDY    49  43  80 NE5       30.20R
WESTERLY       CLOUDY    52  48  86 E9        30.18S
$$

CTZALL-250700-
CONNECTICUT

CITY           SKY/WX    TMP DP  RH WIND       PRES   REMARKS
BRADLEY INTL   CLOUDY    54  36  50 E5        30.17F
6HR MIN TEMP:  53; 6HR MAX TEMP:  61;

HARTFORD       CLOUDY    52  40  63 CALM      30.17S
BRIDGEPORT     LGT RAIN  51  46  83 E13       30.15F
DANBURY        CLOUDY    50  39  66 E7        30.15F
GROTON         CLOUDY    52  47  83 E9        30.16S
NEW HAVEN      CLOUDY    51  47  86 E9        30.15S
CHESTER        CLOUDY    50  46  87 E5        30.16S
MERIDEN        LGT RAIN  53  40  61 NE3       30.16F
WILLIMANTIC    CLOUDY    54  41  61 CALM      30.18S
OXFORD         CLOUDY    52  34  50 E7        30.16S
$$

MEZ002-015-021-024-NHZ003-005-008-011-012-014-VTZ005-008-250700-
NORTHERN NEW ENGLAND

CITY           SKY/WX    TMP DP  RH WIND       PRES   REMARKS
PORTLAND ME    CLOUDY    44  42  93 VRB7      30.28R
6HR MIN TEMP:  43; 6HR MAX TEMP:  46;

BANGOR ME      PTCLDY    39  26  59 NE5       30.32R
CONCORD NH     CLOUDY    46  41  82 CALM      30.24R
MANCHESTER NH  MOCLDY    46  41  82 CALM      30.22S
NASHUA NH      CLOUDY    48  44  86 E5        30.24R
PORTSMOUTH NH  MOCLDY    44  42  91 N3        30.23S
JAFFREY NH     MOCLDY    45  41  86 CALM      30.21R
KEENE NH       MOCLDY    44  40  85 CALM      30.20R
BURLINGTON VT  PTCLDY    40  30  67 CALM      30.22F
MT. WASHINGTON MOCLDY    36  30  80 S13         N/A  WCI  27
$$

NYZ052-076-250700-
EASTERN NEW YORK

CITY           SKY/WX    TMP DP  RH WIND       PRES   REMARKS
ALBANY         CLOUDY    47  31  53 N6        30.17S
6HR MIN TEMP:  47; 6HR MAX TEMP:  61;

NEW YORK CITY  CLOUDY    50  46  86 NE16      30.10F
6HR MIN TEMP:  50; 6HR MAX TEMP:  55; 6HR PCP: TRACE;

$$

ANZALL-250700-
MARINE OBSERVATIONS

STATION/POSITION TIME  TEMP    WIND        PRES    VSBY  WAVE
                       AIR SEA DIR/SP/G                  HT/PER
                 (UTC) (F)     (DEG/KT/KT) (MB)    (MI)  (FT/S)
BOSTON BUOY      0450   46 46   80/  8/ 10 1022.5          2/10
BUZZARDS BAY     0500   49      70/  9/ 10 1022.7R
NANTUCKET SOUND  0550      47              1022.0F         1/ 2
MASS BAY-STELLWA 0504   46 45   80/ 10/ 10 1023.3R         2/10
ISLE OF SHOALS   0500   45     100/ 12/ 13 1023.6R
S OF BLOCK IS    0555      48                N/A           3/11
$$

......................KEY.........................
  SKY/WX - SKY CONDITION/PRESENT WEATHER
  TMP    - TEMPERATURE IN FAHRENHEIT
  DWPT   - DEWPOINT IN FAHRENHEIT
  RH     - RELATIVE HUMIDITY IN PERCENT
  WIND   - DIRECTION AND SPEED IN MPH
  PRES   - MEAN SEA LEVEL PRESSURE IN INCHES OF HG
  WCI    - WIND CHILL INDEX
  VSB    - VISIBILITY IN MILES
  HX     - HEAT INDEX
  TC     - TEMPERATURE IN CELSIUS
  VRB    - VARIABLE WIND DIRECTION
  N/A    - NOT AVAILABLE




USA.gov is the U.S. government's official web portal to all federal, state and local government web resources and services.